TURKMENALEM52E/MONACOSAT (40617 NORAD) Tracking and Keplerian Element Data

This shows tracking and keplerian element data for the satellite.

Feedback or suggestion? Click here.




ElementValue
Catalog40617
NameTURKMENALEM52E/MONACOSAT
Epoch Orbit2250
Epoch Day165.77031363
Epoch Year2021
RAAN348.0356
Inclination0.0172
Eccentricity0.0002555
Argument of Perigee93.5483
Mean Anonmoly151.0259
Mean Motion1.0027275
Decay Rate1.13E-06
L11 40617U 15023A 21165.77031363 .00000113 00000-0 00000-0 0 9999
L22 40617 0.0172 348.0356 0002555 93.5483 151.0259 1.00272750 22504

Live tracking and technical data element details for TURKMENALEM52E/MONACOSAT (NORAD 40617). TURKMENALEM52E/MONACOSAT can be tracked NOW for your location showing map with azimuth and elevation plus other details from your city location.

Track the satellite on the map from your city or location and see movement details for azimuth, elevation, latitude, longitude, range, height, and movement on the map or in text.







IsCatalogInMostPopularTable: catalog: 40617, numindb: 439
Update: records affected: 1



GetName: 40617 TURKMENALEM52E/MONACOSAT

Hit Count: updated at: Tue, 15 Jun 2021 22:49:50 GMT